User: anonymous   Login
Location: Lawrence Hall of Science
(37.8785°N, 122.2415°W)
Time: 09:31:51
(UTC-07:00)
Language:

NOSS 3-1 (C) - Orbit

View from above orbital plane
View from above orbital plane
View from above satellite
View from above satellite

Ground track
Ground track

The orbit data is extracted from the following two-line orbital elements,

1 26907U 01040C   18098.07582826 0.00000000  00000-0  00000-0 0    06
2 26907  63.4148 354.9653 0397000 359.2318   0.7681 13.41280588    09
Epoch (UTC): 08 April 2018 01:49:11
Eccentricity: 0.0397000
inclination: 63.4148°
perigee height: 807 km
apogee height: 1401 km
right ascension of ascending node: 354.9653°
argument of perigee: 359.2318°
revolutions per day: 13.41280588
mean anomaly at epoch: 0.7681°
orbit number at epoch: 0

The dashed part of the orbit path shows where the satellite is in the earth's shadow,  

DLR